This demonstration page uses our WeatherBlox Daily Observations layout. Learn more.

38.88101, -77.10428

Hourly Observations for March 19, 2015

Temp ( °F °C ) Dew Point ( °F °C ) Humidity (%) Winds ( mph kmh ) Pressure ( in mb ) Visibility ( mi km ) Precip ( " mm )
12:52 am 00:52 Partly Cloudy 42 5.6 22 -5.6 45 45 Calm 30.23 1024 10 16.0934 0 0
1:52 am 01:52 Mostly Cloudy 43 6.1 14 -10 31 31 WNW 5 7 30.24 1024 10 16.0934 0 0
2:52 am 02:52 Mostly Cloudy 42 5.6 23 -5 47 47 Calm 30.25 1025 10 16.0934 0 0
3:52 am 03:52 Cloudy 40 4.4 22 -5.6 49 49 SW 3 6 30.25 1024 10 16.0934 0 0
4:52 am 04:52 Mostly Cloudy 41 5 24 -4.4 51 51 Calm 30.26 1025 10 16.0934 0 0
5:52 am 05:52 Mostly Cloudy 40 4.4 21 -6.1 47 47 Calm 30.27 1025 10 16.0934 0 0
6:52 am 06:52 Mostly Cloudy 42 5.6 25 -3.9 51 51 Calm 30.3 1026 10 16.0934 0 0
7:52 am 07:52 Mostly Cloudy 41 5 25 -3.9 53 53 NE 3 6 30.32 1027 10 16.0934 0 0
8:52 am 08:52 Cloudy 43 6.1 23 -5 45 45 NE 8 13 30.34 1027 10 16.0934 0 0
9:52 am 09:52 Cloudy 45 7.2 20 -6.7 37 37 ENE 9 15 30.35 1028 10 16.0934 0 0
10:52 am 10:52 Cloudy 48 8.9 20 -6.7 33 33 ENE 7 11 30.36 1028 10 16.0934 0 0
11:52 am 11:52 Cloudy 47 8.3 19 -7.2 33 33 NNE 5 7 30.36 1028 10 16.0934 0 0
12:52 pm 12:52 Cloudy 49 9.4 18 -7.8 29 29 Calm 30.35 1028 10 16.0934 0 0
1:52 pm 13:52 Cloudy 50 10 21 -6.1 32 32 SSE 6 9 30.32 1027 10 16.0934 0 0
2:52 pm 14:52 Cloudy 52 11.1 20 -6.7 28 28 E 3 6 30.29 1026 10 16.0934 0 0
3:52 pm 15:52 Cloudy 52 11.1 20 -6.7 28 28 SE 3 6 30.28 1026 10 16.0934 0 0
4:52 pm 16:52 Cloudy 52 11.1 20 -6.7 28 28 S 7 11 30.27 1025 10 16.0934 0 0
5:52 pm 17:52 Cloudy 52 11.1 20 -6.7 28 28 S 3 6 30.27 1025 10 16.0934 0 0
6:52 pm 18:52 Cloudy 49 9.4 24 -4.4 38 38 SSE 8 13 30.28 1026 10 16.0934 0 0
7:52 pm 19:52 Cloudy 47 8.3 23 -5 39 39 SE 8 13 30.3 1026 10 16.0934 0 0
8:52 pm 20:52 Mostly Cloudy 46 7.8 21 -6.1 37 37 SSE 6 9 30.31 1027 10 16.0934 0 0
9:52 pm 21:52 Mostly Cloudy 45 7.2 23 -5 42 42 SE 6 9 30.32 1027 10 16.0934 0 0
10:52 pm 22:52 Cloudy 45 7.2 22 -5.6 40 40 Calm 30.31 1026 10 16.0934 0 0
11:52 pm 23:52 Cloudy 45 7.2 23 -5 42 42 ESE 3 6 30.3 1026 10 16.0934 0 0

Powered by AerisWeather